sat.trackr.live / text

‹ back to catalog

ONEWEB-0667

NORAD 55827 · 2023-029AH

PAYLOAD ACTIVE UNKNOWN

§ Identity

Operator
Country
UK
Launch date
2023-03-09
Launch site
AFETR
Launch vehicle
Mass (kg)
RCS (m²)

Purposes: comms

External: N2YO · Heavens-Above · Gunter

§ Orbital elements

Epoch: 2026-05-24T22:07:26.214816Z

Period
109.03 min
Inclination
87.9181°
Eccentricity
0.0001868
Mean motion
13.20768894 rev/d
Perigee alt
1,180.4 km
Apogee alt
1,183.2 km
Semi-major
7,559.9 km
B*
-2.2979e-4
RAAN
279.0679°
Arg perigee
93.5339°
Mean anomaly
266.6008°
Rev number
15,807

§ Raw data

ONEWEB-06671 55827U 23029AH  26144.92183119 -.00000080  00000+0 -22979-3 0  99952 55827  87.9181 279.0679 0001868  93.5339 266.6008 13.20768894158075

JSON: /api/v1/satellites/55827 · /tle

For live sub-satellite position, see the globe view (requires WebGL).

§ Visibility from observer

Set your observer location to see the next 7 days of passes ≥ 10°. The values pass through the URL so the page stays shareable.

No JS? Fill the form by hand. The geolocation button needs JavaScript.